sat.trackr.live / text

‹ back to catalog

STARLINK-2667

NORAD 48663 · 2021-044AB

PAYLOAD ACTIVE UNKNOWN

§ Identity

Operator
Country
US
Launch date
2021-05-26
Launch site
AFETR
Launch vehicle
Mass (kg)
RCS (m²)

Purposes: comms

External: N2YO · Heavens-Above · Gunter

§ Orbital elements

Epoch: 2026-09-19T13:12:28.766880Z

Period
94.01 min
Inclination
53.1591°
Eccentricity
0.0001234
Mean motion
15.31711210 rev/d
Perigee alt
469.9 km
Apogee alt
471.6 km
Semi-major
6,848.8 km
B*
7.5257e-5
RAAN
281.7025°
Arg perigee
91.6628°
Mean anomaly
268.4514°
Rev number
29,367

§ Raw data

STARLINK-26671 48663U 21044AB  26262.55033295  .00001972  00000+0  75257-4 0  99962 48663  53.1591 281.7025 0001234  91.6628 268.4514 15.31711210293679

JSON: /api/v1/satellites/48663 · /tle

For live sub-satellite position, see the globe view (requires WebGL).

§ Visibility from observer

Set your observer location to see the next 7 days of passes ≥ 10°. The values pass through the URL so the page stays shareable.

No JS? Fill the form by hand. The geolocation button needs JavaScript.